ALK177 VCBI-VOHS

Flight info

Callsign ALK177
Flight time 1h 37m
Altitude 39000
Route ATETA2D ATETA DCT TTP/N0446F380 W96 KAMGU W20 LEDOB LEDOB8
Aircraft A20N/M-SDE2E3FGHIRWXY/LB1

Departure

Time 2026-04-28 19:11
Airport Bandaranaike International Colombo Airport (VCBI)

Arrival

Time 2026-04-28 20:49
Airport Rajiv Gandhi International Airport (VOHS)
Time Latitude Longitude Altitude Speed Heading
2026-04-28 18:40 7.17652 79.88374 32 ft 0 kts 37°
2026-04-28 19:02 7.17647 79.88370 33 ft 3 kts 36°
2026-04-28 19:02 7.17629 79.88357 31 ft 3 kts 33°
2026-04-28 19:02 7.17605 79.88343 33 ft 3 kts 24°
2026-04-28 19:02 7.17591 79.88337 33 ft 3 kts 10°
2026-04-28 19:03 7.17573 79.88337 33 ft 3 kts 317°
2026-04-28 19:03 7.17569 79.88340 33 ft 1 kts 307°
2026-04-28 19:06 7.17576 79.88331 33 ft 3 kts 307°
2026-04-28 19:06 7.17598 79.88302 33 ft 7 kts 307°
2026-04-28 19:06 7.17619 79.88253 33 ft 9 kts 271°
2026-04-28 19:07 7.17576 79.88199 33 ft 11 kts 219°
2026-04-28 19:07 7.17505 79.88146 33 ft 14 kts 217°
2026-04-28 19:07 7.17421 79.88080 33 ft 16 kts 218°
2026-04-28 19:07 7.17323 79.88006 32 ft 19 kts 216°
2026-04-28 19:08 7.17211 79.87927 31 ft 21 kts 215°
2026-04-28 19:08 7.17091 79.87836 32 ft 22 kts 218°
2026-04-28 19:08 7.16979 79.87750 32 ft 20 kts 217°
2026-04-28 19:08 7.16868 79.87665 31 ft 18 kts 217°
2026-04-28 19:09 7.16846 79.87578 31 ft 15 kts 298°
2026-04-28 19:09 7.16910 79.87501 33 ft 13 kts 337°
2026-04-28 19:09 7.16983 79.87522 34 ft 0 kts 37°
2026-04-28 19:09 7.16990 79.87528 32 ft 7 kts 37°
2026-04-28 19:10 7.17182 79.87677 33 ft 71 kts 38°
2026-04-28 19:10 7.17751 79.88113 35 ft 125 kts 36°
2026-04-28 19:10 7.18546 79.88707 36 ft 167 kts 36°
2026-04-28 19:10 7.19610 79.89484 225 ft 207 kts 36°
2026-04-28 19:11 7.20910 79.90376 564 ft 247 kts 31°
2026-04-28 19:11 7.22583 79.91193 735 ft 286 kts 20°
2026-04-28 19:11 7.24587 79.91805 1020 ft 303 kts
2026-04-28 19:11 7.26417 79.91574 2985 ft 225 kts 334°
2026-04-28 19:12 7.27760 79.90953 4577 ft 206 kts 333°
2026-04-28 19:12 7.29214 79.90334 4641 ft 248 kts 338°
2026-04-28 19:12 7.30953 79.89744 3937 ft 277 kts 344°
2026-04-28 19:12 7.32924 79.89380 3204 ft 294 kts 354°
2026-04-28 19:13 7.34922 79.89301 3005 ft 286 kts
2026-04-28 19:13 7.36906 79.89478 2594 ft 287 kts
2026-04-28 19:13 7.38869 79.89471 2176 ft 286 kts 351°
2026-04-28 19:13 7.40827 79.89164 1893 ft 280 kts 350°
2026-04-28 19:14 7.42744 79.88894 1866 ft 278 kts 353°
2026-04-28 19:14 7.44680 79.88783 2217 ft 284 kts 359°
2026-04-28 19:14 7.46750 79.88860 2488 ft 311 kts
2026-04-28 19:14 7.49036 79.88976 2493 ft 347 kts
2026-04-28 19:15 7.51574 79.89069 2320 ft 381 kts 358°
2026-04-28 19:15 7.54258 79.88957 2895 ft 385 kts 355°
2026-04-28 19:15 7.56882 79.88820 4150 ft 369 kts 356°
2026-04-28 19:15 7.58568 79.88754 4709 ft 362 kts 357°
2026-04-28 19:16 7.61780 79.88686 4846 ft 334 kts 359°
2026-04-28 19:16 7.64024 79.88674 4944 ft 311 kts 359°
2026-04-28 19:16 7.66123 79.88675 5042 ft 290 kts 359°
2026-04-28 19:16 7.68104 79.88673 5149 ft 285 kts 357°
2026-04-28 19:17 7.70078 79.88447 5264 ft 285 kts 351°
2026-04-28 19:17 7.72046 79.88155 5303 ft 287 kts 351°
2026-04-28 19:17 7.74007 79.87869 5612 ft 289 kts 351°
2026-04-28 19:17 7.75995 79.87581 6462 ft 287 kts 351°
2026-04-28 19:18 7.77978 79.87294 7270 ft 290 kts 352°
2026-04-28 19:18 7.79985 79.87005 8020 ft 293 kts 352°
2026-04-28 19:18 7.82018 79.86711 8779 ft 297 kts 352°
2026-04-28 19:18 7.84077 79.86414 9543 ft 300 kts 352°
2026-04-28 19:19 7.86154 79.86114 10253 ft 303 kts 352°
2026-04-28 19:19 7.88249 79.85811 10964 ft 305 kts 352°
2026-04-28 19:19 7.90364 79.85505 11613 ft 310 kts 352°
2026-04-28 19:19 7.92484 79.85199 12285 ft 312 kts 353°
2026-04-28 19:20 7.94633 79.84888 13026 ft 314 kts 353°
2026-04-28 19:20 7.96802 79.84574 13707 ft 317 kts 353°
2026-04-28 19:20 7.99006 79.84256 14244 ft 321 kts 353°
2026-04-28 19:20 8.01236 79.83933 14706 ft 324 kts 353°
2026-04-28 19:21 8.03475 79.83610 15165 ft 327 kts 353°
2026-04-28 19:21 8.05767 79.83279 15648 ft 334 kts 353°
2026-04-28 19:21 8.08058 79.82947 16124 ft 332 kts 353°
2026-04-28 19:21 8.10360 79.82614 16609 ft 336 kts 353°
2026-04-28 19:22 8.12657 79.82282 17099 ft 339 kts 353°
2026-04-28 19:22 8.14239 79.82053 17440 ft 341 kts 353°
2026-04-28 19:22 8.17375 79.81599 18112 ft 346 kts 353°
2026-04-28 19:22 8.19767 79.81253 18552 ft 348 kts 353°
2026-04-28 19:23 8.22172 79.80905 19001 ft 350 kts 353°
2026-04-28 19:23 8.24584 79.80556 19441 ft 351 kts 353°
2026-04-28 19:23 8.27019 79.80203 19914 ft 355 kts 353°
2026-04-28 19:23 8.29475 79.79847 20381 ft 358 kts 353°
2026-04-28 19:24 8.31952 79.79488 20860 ft 361 kts 354°
2026-04-28 19:24 8.34449 79.79127 21349 ft 363 kts 354°
2026-04-28 19:24 8.36961 79.78763 21826 ft 366 kts 354°
2026-04-28 19:24 8.39484 79.78398 22336 ft 367 kts 354°
2026-04-28 19:25 8.42020 79.78030 22839 ft 369 kts 354°
2026-04-28 19:25 8.44564 79.77661 23354 ft 370 kts 354°
2026-04-28 19:25 8.47117 79.77291 23791 ft 370 kts 354°
2026-04-28 19:25 8.49642 79.76925 24222 ft 370 kts 354°
2026-04-28 19:26 8.52192 79.76556 24655 ft 370 kts 354°
2026-04-28 19:26 8.54745 79.76184 25102 ft 369 kts 354°
2026-04-28 19:26 8.57287 79.75812 25560 ft 368 kts 353°
2026-04-28 19:26 8.59822 79.75440 26019 ft 367 kts 353°
2026-04-28 19:27 8.62344 79.75071 26484 ft 364 kts 354°
2026-04-28 19:27 8.64843 79.74706 26959 ft 361 kts 353°
2026-04-28 19:27 8.67290 79.74349 27437 ft 358 kts 353°
2026-04-28 19:27 8.69745 79.73989 27926 ft 354 kts 352°
2026-04-28 19:28 8.72166 79.73633 28405 ft 350 kts 352°
2026-04-28 19:28 8.74566 79.73282 28800 ft 348 kts 352°
2026-04-28 19:28 8.76972 79.72929 29075 ft 350 kts 352°
2026-04-28 19:28 8.79389 79.72575 29332 ft 353 kts 352°
2026-04-28 19:29 8.81823 79.72218 29574 ft 355 kts 352°
2026-04-28 19:29 8.83469 79.71976 29783 ft 355 kts 352°
2026-04-28 19:29 8.86724 79.71499 30120 ft 356 kts 352°
2026-04-28 19:29 8.89178 79.71138 30307 ft 360 kts 352°
2026-04-28 19:30 8.91665 79.70773 30499 ft 362 kts 352°
2026-04-28 19:30 8.94192 79.70402 30713 ft 364 kts 352°
2026-04-28 19:30 8.96693 79.70035 30975 ft 364 kts 352°
2026-04-28 19:30 8.99203 79.69666 31201 ft 365 kts 351°
2026-04-28 19:31 9.01728 79.69295 31384 ft 369 kts 352°
2026-04-28 19:31 9.04256 79.68923 31432 ft 376 kts 352°
2026-04-28 19:31 9.09534 79.68147 31580 ft 389 kts 352°
2026-04-28 19:32 9.12226 79.67751 31699 ft 394 kts 351°
2026-04-28 19:32 9.14955 79.67350 31826 ft 399 kts 351°
2026-04-28 19:32 9.17718 79.66944 31948 ft 404 kts 351°
2026-04-28 19:32 9.20518 79.66532 32074 ft 409 kts 351°
2026-04-28 19:33 9.23351 79.66115 32185 ft 414 kts 351°
2026-04-28 19:33 9.26218 79.65693 32275 ft 420 kts 351°
2026-04-28 19:33 9.32088 79.64884 32196 ft 427 kts 356°
2026-04-28 19:34 9.38019 79.64634 32203 ft 426 kts 356°
2026-04-28 19:34 9.43968 79.64443 32216 ft 438 kts 359°
2026-04-28 19:35 9.50147 79.64371 32349 ft 451 kts 359°
2026-04-28 19:35 9.56510 79.64267 32464 ft 463 kts 358°
2026-04-28 19:36 9.63023 79.64143 32623 ft 473 kts 358°
2026-04-28 19:36 9.66320 79.64079 32821 ft 474 kts 358°
2026-04-28 19:36 9.69621 79.64015 33117 ft 474 kts 358°
2026-04-28 19:37 9.72925 79.63952 33304 ft 476 kts 358°
2026-04-28 19:37 9.75124 79.63909 33448 ft 476 kts 358°
2026-04-28 19:37 9.79548 79.63824 33841 ft 475 kts 358°
2026-04-28 19:37 9.82852 79.63760 34060 ft 475 kts 358°
2026-04-28 19:38 9.86155 79.63696 34309 ft 473 kts 358°
2026-04-28 19:38 9.89385 79.63633 34668 ft 469 kts 357°
2026-04-28 19:38 9.92654 79.63571 34926 ft 467 kts 357°
2026-04-28 19:38 9.95903 79.63508 35185 ft 466 kts 358°
2026-04-28 19:39 9.99136 79.63445 35470 ft 463 kts 357°
2026-04-28 19:39 10.02359 79.63384 35724 ft 462 kts 357°
2026-04-28 19:39 10.05567 79.63322 36006 ft 460 kts 357°
2026-04-28 19:39 10.08758 79.63260 36292 ft 458 kts 357°
2026-04-28 19:40 10.11938 79.63199 36539 ft 456 kts 357°
2026-04-28 19:40 10.15111 79.63137 36771 ft 455 kts 357°
2026-04-28 19:40 10.18275 79.63076 36991 ft 454 kts 357°
2026-04-28 19:40 10.21430 79.63015 37211 ft 453 kts 356°
2026-04-28 19:41 10.24539 79.62955 37426 ft 452 kts 356°
2026-04-28 19:41 10.27678 79.62894 37632 ft 451 kts 356°
2026-04-28 19:41 10.30809 79.62833 37834 ft 450 kts 356°
2026-04-28 19:41 10.33940 79.62773 38022 ft 449 kts 356°
2026-04-28 19:42 10.37058 79.62712 38208 ft 448 kts 356°
2026-04-28 19:42 10.40173 79.62652 38382 ft 447 kts 356°
2026-04-28 19:42 10.43282 79.62591 38545 ft 446 kts 356°
2026-04-28 19:42 10.45383 79.62550 38613 ft 446 kts 356°
2026-04-28 19:43 10.49495 79.62470 38791 ft 445 kts 356°
2026-04-28 19:43 10.52594 79.62410 38892 ft 445 kts 356°
2026-04-28 19:43 10.55693 79.62350 39003 ft 444 kts 356°
2026-04-28 19:43 10.58780 79.62290 39110 ft 444 kts 356°
2026-04-28 19:44 10.61868 79.62231 39212 ft 444 kts 356°
2026-04-28 19:44 10.64957 79.62171 39286 ft 444 kts 356°
2026-04-28 19:44 10.71133 79.62050 39316 ft 443 kts 356°
2026-04-28 19:45 10.77300 79.61930 39322 ft 443 kts 356°
2026-04-28 19:45 10.83483 79.61809 39315 ft 445 kts 356°
2026-04-28 19:46 10.89631 79.61689 39313 ft 444 kts 356°
2026-04-28 19:46 10.95810 79.61569 39310 ft 444 kts 356°
2026-04-28 19:47 11.01976 79.61448 39313 ft 444 kts 356°
2026-04-28 19:47 11.08165 79.61328 39315 ft 444 kts 356°
2026-04-28 19:48 11.14339 79.61207 39319 ft 444 kts 357°
2026-04-28 19:48 11.19483 79.61107 39326 ft 444 kts 356°
2026-04-28 19:49 11.26705 79.60966 39320 ft 444 kts 357°
2026-04-28 19:49 11.31871 79.60865 39320 ft 444 kts 357°
2026-04-28 19:50 11.41131 79.60685 39319 ft 444 kts 357°
2026-04-28 19:51 11.47307 79.60564 39317 ft 443 kts 356°
2026-04-28 19:51 11.53437 79.60444 39314 ft 443 kts 356°
2026-04-28 19:52 11.59603 79.60324 39313 ft 443 kts 356°
2026-04-28 19:52 11.65770 79.60203 39310 ft 443 kts 356°
2026-04-28 19:53 11.71936 79.60083 39313 ft 442 kts 357°
2026-04-28 19:53 11.78101 79.59962 39311 ft 442 kts 357°
2026-04-28 19:54 11.84218 79.59842 39310 ft 442 kts 356°
2026-04-28 19:54 11.90372 79.59723 39309 ft 443 kts 356°
2026-04-28 19:55 11.96535 79.59601 39310 ft 443 kts 356°
2026-04-28 19:55 12.02703 79.59480 39320 ft 443 kts 356°
2026-04-28 19:56 12.08875 79.59359 39320 ft 444 kts 356°
2026-04-28 19:56 12.15048 79.59238 39329 ft 444 kts 356°
2026-04-28 19:57 12.21232 79.59117 39340 ft 445 kts 356°
2026-04-28 19:57 12.27391 79.58997 39324 ft 446 kts 356°
2026-04-28 19:58 12.33602 79.58874 39333 ft 446 kts 356°
2026-04-28 19:58 12.39833 79.58752 39337 ft 447 kts 356°
2026-04-28 19:59 12.46059 79.58629 39345 ft 448 kts 356°
2026-04-28 19:59 12.52302 79.58507 39349 ft 448 kts 356°
2026-04-28 20:00 12.58513 79.58385 39347 ft 449 kts 356°
2026-04-28 20:00 12.64786 79.58261 39347 ft 452 kts 356°
2026-04-28 20:01 12.71069 79.58138 39347 ft 451 kts 356°
2026-04-28 20:01 12.77347 79.58014 39347 ft 451 kts 356°
2026-04-28 20:02 12.83633 79.57890 39344 ft 451 kts 356°
2026-04-28 20:02 12.89917 79.57766 39345 ft 451 kts 356°
2026-04-28 20:03 12.96130 79.57646 39346 ft 444 kts 356°
2026-04-28 20:03 13.02294 79.57524 39345 ft 444 kts 355°
2026-04-28 20:04 13.08484 79.57399 39355 ft 445 kts 355°
2026-04-28 20:04 13.14678 79.57277 39349 ft 445 kts 355°
2026-04-28 20:05 13.20869 79.57155 39351 ft 445 kts 355°
2026-04-28 20:05 13.27021 79.57033 39346 ft 444 kts 355°
2026-04-28 20:06 13.33214 79.56915 39357 ft 444 kts 355°
2026-04-28 20:06 13.39389 79.56793 39357 ft 444 kts 355°
2026-04-28 20:07 13.45565 79.56670 39351 ft 444 kts 355°
2026-04-28 20:07 13.51710 79.56548 39349 ft 443 kts 355°
2026-04-28 20:08 13.57876 79.56426 39341 ft 443 kts 355°
2026-04-28 20:08 13.64040 79.56248 39351 ft 441 kts 351°
2026-04-28 20:09 13.70117 79.55608 39334 ft 437 kts 349°
2026-04-28 20:09 13.76174 79.54966 39328 ft 438 kts 349°
2026-04-28 20:10 13.82210 79.54325 39317 ft 438 kts 349°
2026-04-28 20:10 13.88271 79.53681 39310 ft 438 kts 349°
2026-04-28 20:11 13.94327 79.53036 39307 ft 438 kts 349°
2026-04-28 20:11 14.00396 79.52389 39297 ft 437 kts 349°
2026-04-28 20:12 14.06421 79.51749 39292 ft 434 kts 349°
2026-04-28 20:12 14.12442 79.51105 39289 ft 435 kts 349°
2026-04-28 20:13 14.18433 79.50466 39281 ft 435 kts 349°
2026-04-28 20:13 14.24454 79.49823 39279 ft 435 kts 349°
2026-04-28 20:14 14.30476 79.49180 39277 ft 435 kts 349°
2026-04-28 20:14 14.36499 79.48536 39277 ft 435 kts 349°
2026-04-28 20:15 14.42525 79.47892 39275 ft 436 kts 349°
2026-04-28 20:15 14.48563 79.47246 39276 ft 436 kts 349°
2026-04-28 20:16 14.54594 79.46601 39276 ft 436 kts 349°
2026-04-28 20:16 14.60630 79.45955 39276 ft 436 kts 349°
2026-04-28 20:17 14.66630 79.45312 39281 ft 436 kts 349°
2026-04-28 20:17 14.72672 79.44665 39282 ft 436 kts 348°
2026-04-28 20:18 14.78714 79.44017 39282 ft 436 kts 348°
2026-04-28 20:18 14.84756 79.43369 39279 ft 436 kts 348°
2026-04-28 20:19 14.90794 79.42721 39281 ft 436 kts 348°
2026-04-28 20:19 14.96745 79.41715 39281 ft 430 kts 341°
2026-04-28 20:20 15.02390 79.39808 39281 ft 424 kts 332°
2026-04-28 20:20 15.05093 79.38595 39144 ft 424 kts 332°
2026-04-28 20:20 15.07799 79.37383 38913 ft 423 kts 332°
2026-04-28 20:20 15.10462 79.36195 38680 ft 422 kts 332°
2026-04-28 20:21 15.13191 79.34976 38466 ft 422 kts 331°
2026-04-28 20:21 15.15857 79.33783 38206 ft 423 kts 331°
2026-04-28 20:21 15.18555 79.32574 37940 ft 424 kts 331°
2026-04-28 20:21 15.21270 79.31355 37676 ft 424 kts 331°
2026-04-28 20:22 15.23979 79.30139 37413 ft 425 kts 331°
2026-04-28 20:22 15.26695 79.28920 37159 ft 425 kts 331°
2026-04-28 20:22 15.29408 79.27703 36914 ft 426 kts 331°
2026-04-28 20:22 15.32132 79.26479 36663 ft 427 kts 331°
2026-04-28 20:23 15.34854 79.25257 36418 ft 427 kts 331°
2026-04-28 20:23 15.37581 79.24031 36168 ft 427 kts 331°
2026-04-28 20:23 15.40271 79.22824 35944 ft 427 kts 331°
2026-04-28 20:23 15.42996 79.21599 35715 ft 427 kts 331°
2026-04-28 20:24 15.45725 79.20371 35473 ft 429 kts 331°
2026-04-28 20:24 15.48469 79.19137 35237 ft 429 kts 331°
2026-04-28 20:24 15.51214 79.17911 35002 ft 428 kts 331°
2026-04-28 20:24 15.53952 79.16691 34777 ft 429 kts 331°
2026-04-28 20:25 15.56695 79.15469 34549 ft 430 kts 331°
2026-04-28 20:25 15.59440 79.14245 34316 ft 430 kts 331°
2026-04-28 20:25 15.62190 79.13017 34104 ft 430 kts 331°
2026-04-28 20:25 15.64945 79.11786 33883 ft 431 kts 331°
2026-04-28 20:26 15.67709 79.10551 33643 ft 431 kts 331°
2026-04-28 20:26 15.70440 79.09331 33391 ft 433 kts 332°
2026-04-28 20:26 15.73215 79.08090 33147 ft 434 kts 331°
2026-04-28 20:26 15.75996 79.06847 32893 ft 436 kts 331°
2026-04-28 20:27 15.78789 79.05597 32637 ft 437 kts 331°
2026-04-28 20:27 15.81598 79.04339 32400 ft 440 kts 331°
2026-04-28 20:27 15.84415 79.03076 32155 ft 441 kts 331°
2026-04-28 20:27 15.87233 79.01814 31913 ft 441 kts 332°
2026-04-28 20:28 15.90063 79.00548 31671 ft 442 kts 332°
2026-04-28 20:28 15.92897 78.99278 31436 ft 444 kts 332°
2026-04-28 20:28 15.95739 78.98004 30929 ft 447 kts 332°
2026-04-28 20:28 15.98564 78.96736 30313 ft 447 kts 332°
2026-04-28 20:29 16.01413 78.95458 29667 ft 445 kts 332°
2026-04-28 20:29 16.04245 78.94190 29078 ft 440 kts 332°
2026-04-28 20:29 16.07041 78.92939 28506 ft 435 kts 332°
2026-04-28 20:29 16.09810 78.91697 27914 ft 431 kts 332°
2026-04-28 20:30 16.12550 78.90467 27337 ft 426 kts 332°
2026-04-28 20:30 16.15260 78.89249 26763 ft 422 kts 332°
2026-04-28 20:30 16.17954 78.88038 26184 ft 419 kts 332°
2026-04-28 20:30 16.20620 78.86839 25592 ft 417 kts 332°
2026-04-28 20:31 16.23267 78.85649 25002 ft 414 kts 333°
2026-04-28 20:31 16.25904 78.84461 24450 ft 412 kts 333°
2026-04-28 20:31 16.28531 78.83278 23889 ft 410 kts 333°
2026-04-28 20:31 16.31148 78.82099 23297 ft 408 kts 333°
2026-04-28 20:32 16.33755 78.80925 22696 ft 405 kts 333°
2026-04-28 20:32 16.36296 78.79780 22154 ft 401 kts 333°
2026-04-28 20:32 16.38848 78.78630 21593 ft 397 kts 334°
2026-04-28 20:32 16.41374 78.77491 21039 ft 394 kts 334°
2026-04-28 20:33 16.43882 78.76358 20479 ft 391 kts 334°
2026-04-28 20:33 16.46372 78.75234 19925 ft 388 kts 334°
2026-04-28 20:33 16.48847 78.74116 19373 ft 386 kts 334°
2026-04-28 20:33 16.51302 78.73008 18820 ft 384 kts 335°
2026-04-28 20:34 16.53746 78.71905 18256 ft 382 kts 335°
2026-04-28 20:34 16.56179 78.70806 17651 ft 380 kts 335°
2026-04-28 20:34 16.58585 78.69720 17148 ft 375 kts 335°
2026-04-28 20:34 16.60968 78.68644 16619 ft 371 kts 336°
2026-04-28 20:35 16.63330 78.67577 16074 ft 368 kts 336°
2026-04-28 20:35 16.65638 78.66531 15552 ft 365 kts 336°
2026-04-28 20:35 16.67991 78.65465 15014 ft 363 kts 336°
2026-04-28 20:35 16.70273 78.64430 14491 ft 360 kts 337°
2026-04-28 20:36 16.72569 78.63389 13934 ft 359 kts 337°
2026-04-28 20:36 16.74853 78.62354 13426 ft 356 kts 337°
2026-04-28 20:36 16.77122 78.61326 12903 ft 353 kts 337°
2026-04-28 20:36 16.79355 78.60313 12392 ft 349 kts 337°
2026-04-28 20:37 16.81577 78.59306 11885 ft 346 kts 337°
2026-04-28 20:37 16.83783 78.58306 11381 ft 343 kts 337°
2026-04-28 20:37 16.85966 78.57316 10883 ft 341 kts 337°
2026-04-28 20:37 16.88136 78.56331 10366 ft 340 kts 337°
2026-04-28 20:38 16.90278 78.55359 10146 ft 329 kts 337°
2026-04-28 20:38 16.91651 78.54735 10064 ft 320 kts 337°
2026-04-28 20:38 16.94286 78.53541 9917 ft 302 kts 337°
2026-04-28 20:38 16.96187 78.52679 9690 ft 294 kts 337°
2026-04-28 20:39 16.98050 78.51836 9333 ft 291 kts 338°
2026-04-28 20:39 16.99311 78.51376 9088 ft 289 kts 345°
2026-04-28 20:39 17.01275 78.51017 8729 ft 285 kts 356°
2026-04-28 20:39 17.03257 78.50970 8331 ft 284 kts 359°
2026-04-28 20:40 17.05223 78.50936 8000 ft 281 kts 359°
2026-04-28 20:40 17.07173 78.50895 7642 ft 278 kts 359°
2026-04-28 20:40 17.09107 78.50853 7267 ft 278 kts 359°
2026-04-28 20:40 17.11025 78.50827 7099 ft 276 kts
2026-04-28 20:41 17.12904 78.51379 6999 ft 281 kts 30°
2026-04-28 20:41 17.14304 78.52701 6897 ft 268 kts 57°
2026-04-28 20:41 17.14923 78.54471 6801 ft 254 kts 85°
2026-04-28 20:41 17.14948 78.56271 6716 ft 241 kts 94°
2026-04-28 20:42 17.14845 78.57954 6613 ft 229 kts 94°
2026-04-28 20:42 17.14760 78.59571 6494 ft 217 kts 93°
2026-04-28 20:42 17.14808 78.61081 6451 ft 200 kts 77°
2026-04-28 20:42 17.15466 78.62290 6346 ft 187 kts 43°
2026-04-28 20:43 17.16563 78.62903 6250 ft 174 kts 12°
2026-04-28 20:43 17.17741 78.62984 6058 ft 169 kts
2026-04-28 20:43 17.18918 78.63028 5790 ft 169 kts
2026-04-28 20:43 17.20090 78.63078 5505 ft 169 kts
2026-04-28 20:44 17.21261 78.63062 5228 ft 168 kts 346°
2026-04-28 20:44 17.22256 78.62516 4955 ft 163 kts 311°
2026-04-28 20:44 17.22827 78.61526 4713 ft 158 kts 285°
2026-04-28 20:44 17.23041 78.60417 4467 ft 154 kts 272°
2026-04-28 20:45 17.23090 78.59304 4203 ft 153 kts 268°
2026-04-28 20:45 17.23087 78.58191 3938 ft 153 kts 266°
2026-04-28 20:45 17.23073 78.57085 3709 ft 151 kts 265°
2026-04-28 20:45 17.23059 78.56007 3606 ft 150 kts 265°
2026-04-28 20:46 17.23043 78.54916 3595 ft 151 kts 265°
2026-04-28 20:46 17.23029 78.53820 3592 ft 150 kts 265°
2026-04-28 20:46 17.23013 78.52718 3410 ft 151 kts 265°
2026-04-28 20:46 17.22999 78.51626 3229 ft 150 kts 265°
2026-04-28 20:47 17.22984 78.50538 3046 ft 150 kts 265°
2026-04-28 20:47 17.22970 78.49465 2855 ft 148 kts 265°
2026-04-28 20:47 17.22946 78.48372 2581 ft 152 kts 265°
2026-04-28 20:47 17.22909 78.47282 2473 ft 147 kts 265°
2026-04-28 20:48 17.22892 78.46188 2323 ft 152 kts 268°
2026-04-28 20:48 17.22917 78.45090 2056 ft 148 kts 269°
2026-04-28 20:48 17.22891 78.44042 1996 ft 133 kts 266°
2026-04-28 20:48 17.22874 78.43290 1987 ft 74 kts 270°
2026-04-28 20:49 17.22939 78.42980 1981 ft 16 kts 303°
2026-04-28 20:49 17.22983 78.42906 1982 ft 0 kts 301°
2026-04-28 20:50 17.22990 78.42893 1982 ft 4 kts 301°
2026-04-28 20:50 17.23014 78.42852 1979 ft 8 kts 301°
2026-04-28 20:50 17.23049 78.42790 1980 ft 11 kts 300°
2026-04-28 20:51 17.23112 78.42734 1982 ft 13 kts 348°
2026-04-28 20:51 17.23211 78.42729 1981 ft 16 kts 360°
2026-04-28 20:51 17.23303 78.42739 1981 ft 12 kts 32°
2026-04-28 20:51 17.23329 78.42827 1981 ft 14 kts 89°
2026-04-28 20:52 17.23327 78.42931 1981 ft 13 kts 91°
2026-04-28 20:52 17.23329 78.42997 1984 ft 3 kts 71°
2026-04-28 20:52 17.23335 78.42996 1986 ft 0 kts
2026-04-28 20:52 17.23340 78.42994 1985 ft 2 kts 337°
2026-04-28 20:53 17.23362 78.42963 1983 ft 4 kts 314°
2026-04-28 20:53 17.23391 78.42950 1983 ft 0 kts 356°
2026-04-28 20:53 17.23399 78.42950 1984 ft 0 kts 358°
2026-04-28 20:54 17.23403 78.42950 1981 ft 0 kts 358°
2026-04-28 20:54 17.23403 78.42951 1981 ft 0 kts
2026-04-28 20:54 17.23404 78.42951 1981 ft 0 kts
2026-04-28 20:55 17.23404 78.42952 1981 ft 0 kts 14°
2026-04-28 20:55 17.23406 78.42952 1981 ft 1 kts 19°
2026-04-28 20:55 17.23407 78.42952 1981 ft 0 kts 17°